Flag for Brazil Weather past 2 weeks in Campo Grande, Mato Grosso Do Sul, Brazil

Now
73 °F

Scattered clouds.


Feels Like: 74 °F
Forecast: N/A
Wind: 12 mph from North

Location: Campo Grande Aeroporto

Current Time: May 30, 2015 at 4:56:01 PM

Latest Report: May 30, 2015 at 4:00 PM


Visibility: N/A

Pressure: 29.89 "Hg

Humidity: 78%

Dew point: 66 °F

Location of Campo GrandeLocation

Historic Weather in Campo Grande — Graph

°F

Campo Grande temperature yesterday

Maximum temperature yesterday: 75 °F (at 2:00 PM)
Minimum temperature yesterday: 52 °F (at 6:00 AM)
Average temperature yesterday: 62 °F

Past Weeks' High & Low Weather Summary

 TemperatureHumidityPressure
High88 °F (May 26, 12:00 PM)100% (May 16, 9:00 PM)30.21 "Hg (May 16, 9:00 PM)
Low32 °F (May 16, 9:00 PM)27% (May 27, 8:00 PM)29.92 "Hg (May 29, 2:00 PM)
Average71 °F79%30.05 "Hg
* Reported May 15 3:00 PM — May 30 3:00 PM, Campo Grande, Weather by CustomWeather, © 2015

Note: Actual official high and low records may vary slightly from our data, if they occured in-between our weather recording intervals... More about our weather records

Advertising

Campo Grande weather history for previous 24 hours

 ConditionsComfort  
Time TempWeatherWind HumidityBarometerVisibility
3:00 PM
Sat, May 30
73 °FScattered clouds.15 mph78%29.92 "HgN/A
2:00 PM72 °FBroken clouds.15 mph83%29.92 "HgN/A
1:00 PM36 °FScattered showers. Broken clouds.16 mph100%29.95 "HgN/A
12:00 PM73 °FBroken clouds.16 mph78%29.98 "HgN/A
11:00 AM72 °FBroken clouds.15 mph78%30.01 "HgN/A
10:00 AM73 °FScattered showers. Partly sunny.15 mph74%30.01 "HgN/A
9:00 AM73 °FPartly sunny.10 mph69%30.01 "HgN/A
8:00 AM72 °FPartly sunny.8 mph73%29.98 "HgN/A
7:00 AM66 °FPartly sunny.8 mph83%29.98 "HgN/A
6:00 AM64 °FPartly sunny.10 mph83%29.95 "HgN/A
5:00 AM64 °FPassing clouds.14 mph83%29.95 "HgN/A
4:00 AM64 °FPassing clouds.17 mph78%29.92 "HgN/A
3:00 AM64 °FPassing clouds.12 mph78%29.95 "HgN/A
2:00 AM63 °FPassing clouds.9 mph83%29.95 "HgN/A
1:00 AM64 °FPassing clouds.12 mph78%29.95 "HgN/A
12:00 AM64 °FPassing clouds.12 mph78%29.98 "HgN/A
11:00 PM
Fri, May 29
64 °FPassing clouds.10 mph78%29.95 "HgN/A
10:00 PM63 °FPassing clouds.7 mph83%29.98 "HgN/A
9:00 PM64 °FClear.8 mph83%29.98 "Hg10 mi
8:00 PM63 °FClear.2 mph88%29.98 "Hg10 mi
7:00 PM64 °FClear.3 mph83%29.95 "Hg10 mi
6:00 PM68 °FClear.5 mph78%29.92 "Hg10 mi
5:00 PM72 °FClear.2 mph69%29.92 "Hg10 mi
4:00 PM73 °FPassing clouds.5 mph57%29.92 "HgN/A
Weather by CustomWeather, © 2015

See weather overviewHow to use our weather pages